RH
30 33 32 26 26 26 28 30 30 25 24 31 27 27 22 18 19 18 16 16 18 22 24 24 30 40 45 47 49 51 53 59 61 62 58 59 58 65 66 70 68 69 67 71
35 33 27 27 27 29 30 32 31 27 27 32 30 31 24 21 19 19 20 19 20 23 25 24 25 38 48 50 52 52 54 58 59 57 56 54 60 62 71 76 75 73 74 75
36 32 30 30 30 33 31 32 30 34 32 30 33 29 28 22 20 19 19 21 21 25 28 27 26 35 49 53 56 54 54 58 58 59 65 64 70 72 72 76 79 80 78 80
33 30 29 31 35 32 43 30 33 40 44 51 32 38 22 20 20 19 19 20 23 27 28 31 31 33 49 54 59 56 56 59 61 63 66 65 60 59 62 73 80 83 84 75
42 35 36 40 36 30 38 36 39 42 48 54 42 52 22 24 23 19 20 21 24 28 31 37 37 38 46 56 62 59 59 62 61 66 60 61 55 58 70 75 83 83 88 86
36 36 36 34 35 31 35 37 38 50 55 83 36 33 22 21 19 19 22 20 27 31 30 38 47 45 52 60 66 64 61 63 63 65 64 62 59 65 71 75 78 79 82 86
42 41 37 35 39 38 38 38 76 87 94 46 34 37 23 22 22 22 24 23 27 32 33 37 43 47 54 64 67 65 61 62 63 66 65 65 64 68 68 73 73 78 79 81
58 88 45 37 36 34 38 36 58 78 44 33 35 42 26 24 24 23 27 26 29 34 36 40 44 49 55 62 65 64 61 59 63 63 65 67 68 70 69 72 73 73 74 82
48 50 41 38 35 33 42 48 36 47 36 47 30 24 24 26 27 26 25 26 28 35 41 42 44 48 51 57 62 64 62 60 62 61 63 65 69 70 72 74 76 78 80 83
34 45 41 45 40 42 43 33 51 47 71 54 33 29 34 30 28 27 28 27 28 36 40 42 44 48 52 53 58 62 63 62 63 63 63 62 66 68 73 75 80 82 82 82
37 39 52 49 52 44 49 48 46 46 47 73 47 32 24 26 25 28 26 23 26 32 36 39 42 48 53 56 59 63 66 64 64 66 65 64 69 74 75 73 77 78 79 81
39 41 54 51 36 35 36 37 38 57 56 52 53 49 22 23 25 25 23 23 25 31 33 36 39 43 47 55 61 67 70 68 68 69 70 72 75 76 76 75 75 78 78 80
40 50 66 56 54 48 51 43 41 37 42 55 74 46 25 26 28 26 28 27 27 27 29 31 33 32 41 53 65 70 73 73 69 72 76 79 80 80 78 81 81 81 82 84
44 51 55 60 47 45 58 52 45 46 62 58 52 45 33 28 27 24 27 29 28 29 29 30 32 32 33 56 68 74 75 75 73 78 82 86 89 84 84 88 90 86 84 83
82 100 91 69 60 60 73 60 50 57 52 68 53 46 36 28 29 30 26 28 34 36 36 34 37 37 41 61 75 76 77 77 80 92 93 92 90 93 93 94 94 92 89 87
96 100 99 96 76 71 76 62 60 65 74 74 55 47 31 34 30 26 31 37 39 40 38 42 44 52 53 66 77 78 79 83 90 96 90 86 93 97 92 95 96 94 93 82
100 100 98 83 54 68 84 54 46 45 43 54 62 46 31 28 24 33 40 37 42 41 45 50 54 56 59 70 77 79 81 87 94 98 92 96 99 91 89 92 94 97 96 93
100 100 99 92 89 93 39 31 30 37 35 36 40 37 34 30 33 43 42 44 44 49 55 62 71 77 76 76 72 80 82 88 94 98 100 98 91 91 93 92 97 99 97 93
87 100 97 94 87 52 46 40 39 44 36 28 30 26 27 28 43 49 43 48 50 56 71 80 82 83 79 77 78 76 82 92 94 96 96 97 90 92 90 93 97 96 95 92
68 95 98 97 94 88 39 35 36 37 46 26 28 29 30 45 55 35 46 54 58 72 79 78 79 80 82 85 84 81 80 92 94 94 98 100 96 94 96 98 98 98 88 86
92 97 96 91 93 84 39 36 37 55 38 37 34 34 41 51 38 40 44 48 55 70 82 75 71 72 85 89 91 91 87 98 95 100 100 100 100 100 100 98 93 90 88 88
57 72 70 89 95 90 45 46 48 31 38 36 35 34 40 38 38 37 41 48 58 73 74 70 69 81 95 98 98 99 100 100 100 100 100 100 99 100 100 94 88 85 85 81
73 46 50 52 52 45 44 40 36 35 39 34 32 33 36 39 40 39 44 47 54 65 66 61 75 87 99 98 99 100 100 100 100 100 100 100 100 100 99 92 84 85 80 77
56 44 51 67 55 53 44 40 40 37 38 34 31 31 35 38 40 38 39 39 44 54 50 52 70 75 91 99 99 99 99 99 100 100 100 100 100 100 96 84 79 76 78 77
68 67 74 65 53 50 47 44 40 38 37 36 32 32 33 38 39 36 36 36 36 40 44 43 43 48 58 90 93 98 99 100 100 100 100 100 94 90 87 88 92 81 76 75
56 56 74 68 49 46 33 30 37 40 40 37 36 35 35 36 37 34 33 34 36 40 42 42 44 46 50 53 64 71 70 66 87 99 100 99 93 72 74 74 80 63 61 61
Wind_Speed
2 3 2 3 4 3 4 6 9 10 5 6 9 17 22 13 5 5 2 5 5 5 4 6 9 15 15 15 14 15 15 14 13 9 8 7 6 5 5 4 4 4 4 3
3 1 5 3 1 3 5 9 9 6 0 5 12 20 20 11 6 2 4 7 7 7 6 4 9 15 17 17 18 17 15 15 12 10 7 5 6 4 4 3 5 5 5 5
2 4 5 3 4 6 9 9 7 6 10 12 10 11 6 6 6 5 2 5 7 9 9 6 5 13 15 16 16 16 14 13 12 10 10 8 6 7 6 6 4 5 5 7
2 6 6 5 6 4 8 3 2 6 7 5 4 6 5 8 7 7 2 1 5 8 8 7 4 10 15 16 14 14 14 14 12 12 11 12 9 8 6 7 5 5 3 6
2 7 6 7 4 5 2 1 4 6 6 7 6 4 2 2 6 7 4 2 4 7 7 8 4 5 11 12 14 13 13 14 12 13 10 10 8 7 9 8 8 6 4 4
1 1 3 1 3 2 2 4 5 1 2 4 5 4 5 4 4 9 4 2 5 7 7 6 5 1 8 10 10 11 13 14 13 13 12 11 10 10 10 10 11 9 6 5
4 6 3 4 4 4 4 4 2 3 3 3 5 5 9 4 3 3 2 1 4 6 5 5 4 4 6 8 10 11 12 13 13 12 11 11 10 11 11 11 10 9 8 6
4 6 9 10 5 1 9 3 3 5 4 6 8 8 3 3 3 4 4 3 1 3 3 4 4 4 7 9 11 11 12 12 12 12 12 11 11 11 10 10 9 9 9 7
6 5 4 6 3 3 5 6 1 4 4 5 7 8 8 9 7 7 6 4 1 3 2 3 3 2 4 9 12 14 15 15 14 13 12 12 11 11 10 10 9 8 8 7
4 6 6 5 2 1 2 3 2 2 4 7 7 13 8 7 5 7 10 8 5 5 3 2 1 1 4 6 9 12 15 15 14 14 13 12 11 10 10 10 10 9 7 6
3 7 5 6 11 14 6 5 4 3 4 4 8 5 5 5 4 8 10 9 5 7 5 4 4 5 6 6 8 12 14 15 14 14 13 12 12 11 10 9 10 10 8 6
11 5 9 12 4 8 14 14 17 7 9 7 9 11 8 4 4 5 7 7 7 8 8 8 7 7 9 9 9 11 13 15 15 14 13 14 13 12 11 10 9 9 7 5
12 8 7 6 2 3 8 14 14 18 14 21 7 6 8 6 5 7 9 10 7 8 10 9 10 11 12 12 9 10 12 14 15 15 15 16 15 13 12 11 10 9 8 6
12 12 16 16 3 4 6 15 19 20 15 17 23 27 21 20 17 15 10 13 12 11 11 11 12 15 13 10 9 9 12 14 15 16 17 17 17 17 14 10 9 8 8 8
2 6 9 16 16 11 10 12 15 19 20 17 20 22 20 21 21 19 18 12 9 12 11 9 9 9 9 8 8 10 13 15 16 17 19 20 15 14 11 12 13 11 10 7
4 2 3 4 10 11 18 20 19 20 21 21 25 30 22 23 21 18 11 13 12 6 8 6 6 7 7 7 9 10 13 15 18 19 22 20 18 17 15 14 14 13 11 6
4 3 3 6 6 10 14 20 23 22 21 20 22 25 21 18 14 9 10 8 8 7 6 4 5 5 6 5 7 10 12 15 17 17 23 22 21 20 19 16 15 11 10 9
3 4 3 4 3 8 9 3 7 12 16 21 22 20 19 18 12 4 6 6 6 4 2 1 4 6 7 8 7 10 12 16 17 17 19 22 23 19 18 16 12 11 8 5
14 5 5 4 9 13 17 7 6 8 14 14 16 17 17 15 4 9 9 5 4 3 2 1 2 4 7 8 8 9 12 15 18 19 19 21 25 21 19 15 12 10 8 7
17 15 9 5 5 6 2 3 5 4 12 13 15 16 14 5 6 7 10 9 7 5 5 2 1 3 6 9 8 7 11 13 15 17 19 19 22 24 18 14 13 10 7 6
5 5 16 15 11 6 12 5 7 8 10 3 1 6 6 6 3 8 10 8 8 7 6 3 2 5 6 9 10 6 7 10 15 16 20 23 23 17 11 11 11 9 8 6
11 8 7 5 6 10 10 8 10 7 2 2 3 5 8 7 6 9 9 8 8 8 6 3 4 6 7 9 8 6 5 8 13 18 22 23 19 12 11 11 9 8 8 7
7 11 8 9 4 3 5 6 5 10 7 2 5 7 7 8 8 10 9 9 8 9 6 5 7 7 8 7 9 13 8 11 17 19 18 17 14 12 9 10 9 8 6 4
5 6 7 4 11 16 9 9 9 6 9 7 6 4 7 9 10 10 9 9 9 10 9 7 7 6 7 8 12 11 13 13 16 16 15 14 10 8 7 7 6 3 3 4
5 7 10 11 15 6 10 11 13 13 12 8 8 8 9 9 10 11 10 10 11 11 9 8 7 7 7 7 7 7 8 8 10 8 7 8 6 7 8 8 7 7 6 6
9 12 8 8 10 8 13 6 9 12 10 10 8 7 6 8 9 11 10 13 14 13 11 9 8 7 6 6 6 5 3 1 3 3 4 6 5 5 6 7 7 9 8 8
Wind_Direction
56 234 202 83 31 19 307 289 289 297 34 308 277 291 288 305 279 245 328 334 360 357 332 275 234 208 198 196 188 181 177 177 173 178 172 168 162 147 129 121 110 105 98 91
217 310 83 83 34 299 284 295 301 299 30 293 294 289 286 289 215 220 322 325 335 340 345 311 242 216 204 193 188 188 187 183 182 177 178 188 165 146 140 116 105 105 108 95
279 110 147 203 233 282 279 264 305 293 317 262 299 265 196 173 201 192 273 317 332 340 341 338 257 215 208 203 196 191 188 188 184 177 170 157 155 148 148 147 127 105 105 109
235 149 192 205 248 240 280 78 286 291 319 296 20 291 228 182 203 196 260 331 348 351 352 348 317 210 203 202 199 194 187 187 189 181 181 180 182 181 180 163 154 127 108 113
148 183 203 249 269 185 337 16 303 306 282 331 198 252 225 143 224 199 195 23 26 15 7 356 356 209 199 195 196 195 191 187 191 192 198 192 194 175 165 160 154 151 149 123
287 73 214 287 136 200 93 269 224 250 228 247 156 228 268 181 224 156 171 99 38 19 13 34 29 155 179 183 196 198 197 194 193 199 201 202 193 178 171 171 167 163 176 152
187 207 148 188 215 177 223 257 284 241 209 278 153 233 251 185 145 140 176 148 30 22 17 33 61 132 173 190 199 202 204 206 201 203 206 211 201 192 183 181 179 172 176 162
239 283 191 172 226 273 193 262 229 279 275 302 151 240 226 139 191 181 189 200 305 60 59 71 92 134 171 190 202 212 218 216 211 206 205 205 200 188 184 184 183 179 174 171
211 233 138 191 157 188 162 212 47 274 231 269 229 214 243 188 218 203 198 194 198 117 94 64 90 121 186 199 210 214 213 214 212 206 201 193 194 185 180 171 170 168 166 168
223 261 186 134 169 202 259 124 134 221 259 255 263 265 237 189 197 206 214 203 185 171 171 174 218 235 235 227 224 223 222 218 211 201 195 187 188 182 171 168 161 163 163 167
189 232 134 156 200 188 170 198 220 292 242 262 291 272 97 144 196 196 198 194 208 206 212 220 241 248 250 245 234 222 219 215 207 200 187 177 175 171 165 166 163 161 159 164
203 232 247 222 205 237 237 220 203 211 214 228 267 269 158 155 161 214 215 208 227 222 221 227 240 259 270 255 241 224 214 210 202 193 182 172 170 166 164 162 162 156 152 156
167 221 245 243 195 210 229 219 236 234 250 247 222 235 131 135 199 229 249 260 241 246 253 248 249 268 263 263 245 227 212 204 198 185 175 168 167 165 159 157 153 150 143 149
168 228 218 239 266 104 207 219 221 229 232 247 242 263 263 279 277 271 241 234 236 265 280 281 288 287 276 251 236 218 206 199 189 180 171 167 169 167 175 180 194 180 169 167
112 240 241 260 273 280 247 254 225 227 239 238 262 261 277 288 294 299 307 300 282 276 292 280 290 294 271 239 222 207 200 189 185 177 172 179 182 180 179 182 176 174 181 174
155 250 197 255 239 245 256 250 247 238 240 250 264 270 274 279 281 287 298 293 298 279 279 282 304 302 265 240 219 205 200 189 187 182 182 182 195 197 180 182 177 176 176 161
193 190 206 249 246 272 261 246 245 248 238 238 250 260 281 282 283 297 296 276 270 262 274 294 319 330 329 288 244 222 209 198 196 187 190 197 195 187 177 178 175 170 175 179
214 189 217 260 207 231 272 339 274 242 237 238 248 259 261 275 292 276 237 233 245 227 240 310 346 340 335 313 288 252 222 201 199 194 194 197 191 186 183 177 176 176 172 165
212 194 237 238 228 275 286 245 209 210 245 248 261 270 266 275 340 254 221 206 187 161 130 45 346 346 346 340 310 265 240 206 197 197 194 188 188 177 179 168 172 165 171 179
222 216 223 202 227 241 306 87 86 127 259 253 248 253 265 131 246 283 147 160 160 161 152 137 42 15 10 348 335 285 252 217 205 202 192 187 179 173 171 176 172 173 175 174
192 214 227 233 247 242 246 181 149 247 279 135 195 235 191 189 244 125 148 152 162 156 154 159 45 24 4 349 336 305 263 216 214 203 190 178 172 163 170 175 171 169 167 162
194 191 215 231 249 248 179 123 210 237 81 183 199 215 205 195 140 149 155 158 163 158 155 121 70 50 28 10 360 1 345 228 211 185 162 155 154 155 162 161 161 170 169 161
251 231 219 215 209 91 195 260 221 268 297 225 217 200 198 185 182 171 169 165 163 155 140 117 103 75 51 46 60 61 63 122 138 134 133 137 141 146 165 167 170 170 164 150
275 266 245 199 247 250 250 242 246 235 236 236 229 237 204 202 187 181 173 169 162 154 146 137 133 116 94 79 83 86 90 110 117 121 133 145 143 152 165 163 160 165 173 193
217 164 227 239 256 276 272 256 253 251 246 234 217 217 216 212 192 183 178 177 159 152 151 154 141 124 110 111 97 98 102 107 112 120 136 158 159 175 179 170 185 225 226 221
209 221 206 228 228 186 260 260 235 236 239 222 214 199 208 209 196 180 178 174 159 156 152 149 139 128 119 114 122 131 142 195 233 185 192 182 174 186 186 180 204 248 253 270